Time,TemperatureF,DewpointF,PressureIn,WindDirection,WindDirectionDegrees,WindSpeedMPH,WindSpeedGustMPH,Humidity,HourlyPrecipIn,Conditions,Clouds,dailyrainin,SolarRadiationWatts/m^2,SoftwareType,DateUTC
2013-05-04 14:34:00,75.8,48.4,29.78,West,259,1.0,3.0,38,0.00,,,0.00,439,Wunderground v.1.15,2013-05-04 04:34:00,
2013-05-04 14:39:00,75.9,49.8,29.79,SSW,212,2.0,3.0,40,0.00,,,0.00,417,Wunderground v.1.15,2013-05-04 04:39:00,
2013-05-04 14:44:00,75.9,48.5,29.79,West,265,2.0,2.0,38,0.00,,,0.00,403,Wunderground v.1.15,2013-05-04 04:44:00,
2013-05-04 14:49:00,76.0,49.2,29.79,WNW,300,1.0,3.0,39,0.00,,,0.00,388,Wunderground v.1.15,2013-05-04 04:49:00,
2013-05-04 14:54:00,75.9,48.5,29.79,West,265,2.0,2.0,38,0.00,,,0.00,373,Wunderground v.1.15,2013-05-04 04:54:00,
2013-05-04 14:59:00,76.1,48.6,29.80,WNW,298,2.0,2.0,38,0.00,,,0.00,364,Wunderground v.1.15,2013-05-04 04:59:00,
2013-05-04 15:04:00,75.6,48.9,29.80,SW,214,2.0,2.0,39,0.00,,,0.00,338,Wunderground v.1.15,2013-05-04 05:04:00,
2013-05-04 15:14:00,75.6,50.2,29.80,WSW,241,2.0,2.0,41,0.00,,,0.00,322,Wunderground v.1.15,2013-05-04 05:14:00,
2013-05-04 15:19:00,75.7,49.7,29.80,West,259,2.0,2.0,40,0.00,,,0.00,306,Wunderground v.1.15,2013-05-04 05:19:00,
2013-05-04 15:24:00,75.7,49.7,29.80,West,264,1.0,1.0,40,0.00,,,0.00,292,Wunderground v.1.15,2013-05-04 05:24:00,
2013-05-04 15:29:00,75.5,49.5,29.80,WSW,252,1.0,1.0,40,0.00,,,0.00,276,Wunderground v.1.15,2013-05-04 05:29:00,
2013-05-04 15:39:00,74.9,50.3,29.80,WSW,242,1.0,1.0,42,0.00,,,0.00,248,Wunderground v.1.15,2013-05-04 05:39:00,
2013-05-04 15:44:00,74.8,50.8,29.81,SW,230,1.0,2.0,43,0.00,,,0.00,229,Wunderground v.1.15,2013-05-04 05:44:00,
2013-05-04 15:49:00,73.9,50.0,29.81,SSE,153,1.0,2.0,43,0.00,,,0.00,213,Wunderground v.1.15,2013-05-04 05:49:00,
2013-05-04 15:54:00,73.3,50.1,29.81,WNW,301,2.0,2.0,44,0.00,,,0.00,197,Wunderground v.1.15,2013-05-04 05:54:00,
2013-05-04 16:04:00,69.6,59.0,29.82,WNW,290,4.0,7.0,69,0.00,,,0.00,142,Wunderground v.1.15,2013-05-04 06:04:00,
2013-05-04 16:09:00,68.5,59.1,29.83,SSW,204,4.0,7.0,72,0.00,,,0.00,137,Wunderground v.1.15,2013-05-04 06:09:00,
2013-05-04 16:14:00,67.9,58.9,29.83,NW,314,4.0,5.0,73,0.00,,,0.00,93,Wunderground v.1.15,2013-05-04 06:14:00,
2013-05-04 16:19:00,67.3,58.3,29.83,SSE,165,4.0,6.0,73,0.00,,,0.00,58,Wunderground v.1.15,2013-05-04 06:19:00,
2013-05-04 16:24:00,67.1,58.5,29.84,SSE,163,3.0,4.0,74,0.00,,,0.00,35,Wunderground v.1.15,2013-05-04 06:24:00,
2013-05-04 16:34:00,66.2,57.7,29.84,SW,224,3.0,6.0,74,0.00,,,0.00,16,Wunderground v.1.15,2013-05-04 06:34:00,
2013-05-04 16:39:00,66.0,57.5,29.84,WSW,246,3.0,8.0,74,0.00,,,0.00,21,Wunderground v.1.15,2013-05-04 06:39:00,
2013-05-04 16:44:00,65.7,57.6,29.85,West,259,3.0,4.0,75,0.00,,,0.00,12,Wunderground v.1.15,2013-05-04 06:44:00,
2013-05-04 16:49:00,65.3,57.2,29.85,NW,322,3.0,4.0,75,0.00,,,0.00,9,Wunderground v.1.15,2013-05-04 06:49:00,
2013-05-04 16:54:00,65.1,56.6,29.86,SSE,150,3.0,4.0,74,0.00,,,0.00,7,Wunderground v.1.15,2013-05-04 06:54:00,
2013-05-04 16:59:00,65.0,56.9,29.86,SE,144,3.0,4.0,75,0.00,,,0.00,0,Wunderground v.1.15,2013-05-04 06:59:00,
2013-05-04 17:09:00,64.7,56.2,29.87,West,280,4.0,4.0,74,0.00,,,0.00,0,Wunderground v.1.15,2013-05-04 07:09:00,
2013-05-04 17:14:00,64.6,56.5,29.87,WNW,286,4.0,8.0,75,0.00,,,0.00,0,Wunderground v.1.15,2013-05-04 07:14:00,
2013-05-04 17:19:00,64.5,56.0,29.87,NW,318,4.0,8.0,74,0.00,,,0.00,0,Wunderground v.1.15,2013-05-04 07:19:00,
2013-05-04 17:24:00,64.4,55.9,29.88,West,279,4.0,4.0,74,0.00,,,0.00,0,Wunderground v.1.15,2013-05-04 07:24:00,
2013-05-04 17:34:00,64.2,55.4,29.88,WNW,282,3.0,3.0,73,0.00,,,0.00,0,Wunderground v.1.15,2013-05-04 07:34:00,
2013-05-04 17:39:00,64.2,55.4,29.88,NW,323,3.0,3.0,73,0.00,,,0.00,0,Wunderground v.1.15,2013-05-04 07:39:00,
2013-05-04 17:44:00,64.1,54.9,29.89,SSW,196,3.0,3.0,72,0.00,,,0.00,0,Wunderground v.1.15,2013-05-04 07:44:00,
2013-05-04 17:49:00,64.0,54.4,29.89,SE,132,3.0,3.0,71,0.00,,,0.00,0,Wunderground v.1.15,2013-05-04 07:49:00,
2013-05-04 17:59:00,63.8,54.2,29.90,West,274,3.0,4.0,71,0.00,,,0.00,0,Wunderground v.1.15,2013-05-04 07:59:00,
2013-05-04 18:04:00,63.7,54.1,29.90,WSW,254,3.0,3.0,71,0.00,,,0.00,0,Wunderground v.1.15,2013-05-04 08:04:00,
2013-05-04 18:09:00,63.6,53.6,29.90,WNW,303,4.0,4.0,70,0.00,,,0.00,0,Wunderground v.1.15,2013-05-04 08:09:00,
2013-05-04 18:14:00,63.5,53.1,29.90,NNW,329,4.0,4.0,69,0.00,,,0.00,0,Wunderground v.1.15,2013-05-04 08:14:00,
2013-05-04 18:19:00,63.5,53.1,29.90,WSW,246,4.0,7.0,69,0.00,,,0.00,0,Wunderground v.1.15,2013-05-04 08:19:00,
2013-05-04 18:29:00,63.4,53.0,29.90,WNW,284,4.0,8.0,69,0.00,,,0.00,0,Wunderground v.1.15,2013-05-04 08:29:00,
2013-05-04 18:39:00,63.2,52.9,29.91,WSW,244,4.0,4.0,69,0.00,,,0.00,0,Wunderground v.1.15,2013-05-04 08:39:00,
2013-05-04 18:44:00,63.1,52.4,29.91,WSW,248,4.0,4.0,68,0.00,,,0.00,0,Wunderground v.1.15,2013-05-04 08:44:00,
2013-05-04 18:49:00,63.0,52.3,29.91,WNW,290,4.0,4.0,68,0.00,,,0.00,0,Wunderground v.1.15,2013-05-04 08:49:00,
2013-05-04 18:59:00,63.1,52.0,29.92,WSW,257,4.0,4.0,67,0.00,,,0.00,0,Wunderground v.1.15,2013-05-04 08:59:00,
2013-05-04 19:04:00,63.0,52.3,29.92,West,262,4.0,4.0,68,0.00,,,0.00,0,Wunderground v.1.15,2013-05-04 09:04:00,
2013-05-04 19:09:00,63.0,52.3,29.92,West,273,3.0,4.0,68,0.00,,,0.00,0,Wunderground v.1.15,2013-05-04 09:09:00,
2013-05-04 19:19:00,62.9,51.8,29.92,South,177,4.0,4.0,67,0.00,,,0.00,0,Wunderground v.1.15,2013-05-04 09:19:00,
2013-05-04 19:24:00,62.9,51.8,29.93,WNW,292,4.0,4.0,67,0.00,,,0.00,0,Wunderground v.1.15,2013-05-04 09:24:00,
2013-05-04 19:29:00,62.9,51.0,29.93,West,276,4.0,4.0,65,0.00,,,0.00,0,Wunderground v.1.15,2013-05-04 09:29:00,
2013-05-04 19:39:00,62.9,50.1,29.94,West,275,4.0,4.0,63,0.00,,,0.00,0,Wunderground v.1.15,2013-05-04 09:39:00,
2013-05-04 19:44:00,62.9,50.1,29.94,WSW,256,4.0,9.0,63,0.00,,,0.00,0,Wunderground v.1.15,2013-05-04 09:44:00,
2013-05-04 19:54:00,63.0,50.2,29.94,NE,43,3.0,4.0,63,0.00,,,0.00,0,Wunderground v.1.15,2013-05-04 09:54:00,
2013-05-04 19:59:00,63.0,49.8,29.94,WSW,246,3.0,4.0,62,0.00,,,0.00,0,Wunderground v.1.15,2013-05-04 09:59:00,
2013-05-04 20:04:00,63.0,50.2,29.94,South,183,4.0,4.0,63,0.00,,,0.00,0,Wunderground v.1.15,2013-05-04 10:04:00,
2013-05-04 20:09:00,62.9,50.1,29.95,West,281,3.0,6.0,63,0.00,,,0.00,0,Wunderground v.1.15,2013-05-04 10:09:00,
2013-05-04 20:19:00,62.8,50.4,29.95,WNW,295,4.0,5.0,64,0.00,,,0.00,0,Wunderground v.1.15,2013-05-04 10:19:00,
2013-05-04 20:24:00,62.8,50.4,29.95,SW,221,4.0,6.0,64,0.00,,,0.00,0,Wunderground v.1.15,2013-05-04 10:24:00,
2013-05-04 20:29:00,62.7,50.8,29.95,NNW,347,4.0,6.0,65,0.00,,,0.00,0,Wunderground v.1.15,2013-05-04 10:29:00,
2013-05-04 20:39:00,62.6,50.7,29.96,West,279,4.0,4.0,65,0.00,,,0.00,0,Wunderground v.1.15,2013-05-04 10:39:00,
2013-05-04 20:44:00,62.6,50.7,29.96,West,269,4.0,4.0,65,0.00,,,0.00,0,Wunderground v.1.15,2013-05-04 10:44:00,
2013-05-04 20:54:00,62.4,50.1,29.96,WSW,249,4.0,4.0,64,0.00,,,0.00,0,Wunderground v.1.15,2013-05-04 10:54:00,
2013-05-04 20:59:00,62.3,49.1,29.97,SW,219,4.0,7.0,62,0.00,,,0.00,0,Wunderground v.1.15,2013-05-04 10:59:00,
2013-05-04 21:09:00,62.3,48.7,29.97,WNW,287,3.0,4.0,61,0.00,,,0.00,0,Wunderground v.1.15,2013-05-04 11:09:00,
2013-05-04 21:14:00,62.3,48.7,29.97,WSW,258,2.0,2.0,61,0.00,,,0.00,0,Wunderground v.1.15,2013-05-04 11:14:00,
2013-05-04 21:19:00,62.2,48.6,29.98,SW,230,3.0,5.0,61,0.00,,,0.00,0,Wunderground v.1.15,2013-05-04 11:19:00,
2013-05-04 21:24:00,62.2,48.6,29.98,WNW,290,3.0,4.0,61,0.00,,,0.00,0,Wunderground v.1.15,2013-05-04 11:24:00,
2013-05-04 21:34:00,62.2,49.0,29.98,SW,225,3.0,3.0,62,0.00,,,0.00,0,Wunderground v.1.15,2013-05-04 11:34:00,
2013-05-04 21:44:00,62.1,48.9,29.97,WNW,290,3.0,3.0,62,0.00,,,0.00,0,Wunderground v.1.15,2013-05-04 11:44:00,
2013-05-04 21:49:00,62.1,48.9,29.98,West,275,3.0,3.0,62,0.00,,,0.00,0,Wunderground v.1.15,2013-05-04 11:49:00,
2013-05-04 21:54:00,62.1,49.4,29.98,West,274,2.0,2.0,63,0.00,,,0.00,0,Wunderground v.1.15,2013-05-04 11:54:00,
2013-05-04 21:59:00,62.1,49.4,29.98,WNW,292,2.0,2.0,63,0.00,,,0.00,0,Wunderground v.1.15,2013-05-04 11:59:00,
2013-05-04 22:09:00,62.1,48.9,29.98,SSW,197,3.0,3.0,62,0.00,,,0.00,0,Wunderground v.1.15,2013-05-04 12:09:00,
2013-05-04 22:14:00,62.0,48.4,29.97,SW,223,3.0,6.0,61,0.00,,,0.00,0,Wunderground v.1.15,2013-05-04 12:14:00,
2013-05-04 22:19:00,62.0,48.4,29.98,WSW,239,3.0,9.0,61,0.00,,,0.00,0,Wunderground v.1.15,2013-05-04 12:19:00,
2013-05-04 22:24:00,62.0,48.4,29.98,SE,125,3.0,9.0,61,0.00,,,0.00,0,Wunderground v.1.15,2013-05-04 12:24:00,
2013-05-04 22:34:00,62.0,48.4,29.98,SSW,212,2.0,2.0,61,0.00,,,0.00,0,Wunderground v.1.15,2013-05-04 12:34:00,
2013-05-04 22:39:00,62.0,48.4,29.98,WSW,257,3.0,3.0,61,0.00,,,0.00,0,Wunderground v.1.15,2013-05-04 12:39:00,
2013-05-04 22:44:00,61.9,48.3,29.97,West,281,3.0,3.0,61,0.00,,,0.00,0,Wunderground v.1.15,2013-05-04 12:44:00,
2013-05-04 22:49:00,61.9,48.3,29.97,WSW,240,3.0,3.0,61,0.00,,,0.00,0,Wunderground v.1.15,2013-05-04 12:49:00,
2013-05-04 22:54:00,61.9,48.3,29.97,WSW,252,3.0,3.0,61,0.00,,,0.00,0,Wunderground v.1.15,2013-05-04 12:54:00,
2013-05-04 23:04:00,61.8,47.8,29.97,WNW,282,3.0,3.0,60,0.00,,,0.00,0,Wunderground v.1.15,2013-05-04 13:04:00,
2013-05-04 23:09:00,61.8,47.8,29.97,NW,314,3.0,3.0,60,0.00,,,0.00,0,Wunderground v.1.15,2013-05-04 13:09:00,
2013-05-04 23:14:00,61.7,48.1,29.97,SW,235,2.0,2.0,61,0.00,,,0.00,0,Wunderground v.1.15,2013-05-04 13:14:00,
2013-05-04 23:19:00,61.8,48.6,29.97,WNW,282,2.0,2.0,62,0.00,,,0.00,0,Wunderground v.1.15,2013-05-04 13:19:00,
2013-05-04 23:24:00,61.7,48.5,29.97,South,190,1.0,1.0,62,0.00,,,0.00,0,Wunderground v.1.15,2013-05-04 13:24:00,
2013-05-04 23:29:00,61.7,48.5,29.97,East,84,2.0,2.0,62,0.00,,,0.00,0,Wunderground v.1.15,2013-05-04 13:29:00,
2013-05-04 23:39:00,61.6,48.4,29.97,WSW,256,2.0,4.0,62,0.00,,,0.00,0,Wunderground v.1.15,2013-05-04 13:39:00,
2013-05-04 23:44:00,61.5,48.8,29.97,SW,230,2.0,2.0,63,0.00,,,0.00,0,Wunderground v.1.15,2013-05-04 13:44:00,
2013-05-04 23:54:00,61.5,48.8,29.96,SW,232,2.0,2.0,63,0.00,,,0.00,0,Wunderground v.1.15,2013-05-04 13:54:00,
2013-05-04 23:59:00,61.5,48.8,29.96,West,281,2.0,6.0,63,0.00,,,0.00,0,Wunderground v.1.15,2013-05-04 13:59:00,